| time (UTC) | temp C | wind direction | speed KPH | gust KPH | rain 1hr cm | rain 24hr cm | rain mn cm | humidity % | barometer mb |
| 20260504170114 | 0 | 0 | 14.5 | 17.7 | 0.00 | 0.00 | 0.00 | 100 | 943.6 |
| 20260504160235 | 0 | 0 | 11.3 | 16.1 | 0.00 | 0.00 | 0.00 | 100 | 943.4 |
| 20260504151029 | 0 | 0 | 4.8 | 9.7 | 0.00 | 0.00 | 0.00 | 100 | 943.7 |
| 20260504150627 | 0 | 0 | 6.4 | 11.3 | 0.00 | 0.00 | 0.00 | 100 | 943.7 |
| 20260504150227 | 0 | 0 | 4.8 | 12.9 | 0.00 | 0.00 | 0.00 | 100 | 943.7 |
| 20260504141013 | 0 | 0 | 3.2 | 6.4 | 0.00 | 0.00 | 0.00 | 100 | 944.1 |
| 20260504140610 | 0 | 0 | 9.7 | 19.3 | 0.00 | 0.00 | 0.00 | 100 | 944.0 |
| 20260504140209 | 0 | 0 | 11.3 | 24.1 | 0.00 | 0.00 | 0.00 | 100 | 944.0 |
| 20260504130602 | 0 | 0 | 4.8 | 8.0 | 0.00 | 0.00 | 0.00 | 100 | 944.5 |
| 20260504130202 | 0 | 0 | 8.0 | 16.1 | 0.00 | 0.00 | 0.00 | 100 | 944.5 |
| 20260504120154 | 0 | 0 | 6.4 | 9.7 | 0.00 | 0.00 | 0.00 | 100 | 945.1 |
| 20260504110536 | 0 | 0 | 6.4 | 19.3 | 0.00 | 0.00 | 0.00 | 100 | 945.8 |
| 20260504110136 | 0 | 0 | 14.5 | 24.1 | 0.00 | 0.00 | 0.00 | 100 | 945.7 |
| 20260504100528 | 0 | 0 | 16.1 | 22.5 | 0.00 | 0.00 | 0.00 | 100 | 946.5 |
| 20260504100128 | 0 | 0 | 9.7 | 16.1 | 0.00 | 0.00 | 0.00 | 100 | 946.4 |
| 20260504090110 | 0 | 0 | 3.2 | 6.4 | 0.00 | 0.00 | 0.00 | 100 | 947.0 |
| 20260504081704 | 0 | 0 | 4.8 | 11.3 | 0.00 | 0.00 | 0.00 | 100 | 947.0 |
| 20260504081304 | 0 | 0 | 6.4 | 12.9 | 0.00 | 0.00 | 0.00 | 100 | 947.0 |
| 20260504080905 | 0 | 0 | 4.8 | 8.0 | 0.00 | 0.00 | 0.00 | 100 | 947.0 |
| 20260504080503 | 0 | 0 | 8.0 | 14.5 | 0.00 | 0.00 | 0.00 | 100 | 947.0 |
| 20260504050429 | 0 | 0 | 11.3 | 16.1 | 0.00 | 0.00 | 0.00 | 100 | 946.5 |
| 20260504045629 | 0 | 0 | 9.7 | 12.9 | 0.00 | 0.00 | 0.00 | 100 | 946.6 |
| 20260504045129 | 0 | 0 | 4.8 | 8.0 | 0.00 | 0.00 | 0.00 | 100 | 946.7 |
| 20260504044506 | 0 | 0 | 4.8 | 8.0 | 0.00 | 0.00 | 0.00 | 100 | 946.8 |